NOAA 16 DEB, 41228

Orbit data source: Space-Track

NOAA 16 DEB, 41228 is space debris in SSO originally from a launch on Thu, 21 Sep 2000 UTC launched from the Air Force Western Test Range (AFWTR). Debris objects in space refer to the collection of defunct objects orbiting the Earth. Examples of debris include non-operational satellites, rocket bodies, and fragments generated from explosions, collisions, or faulty payload assembly.

Loading next visibility...
Identifier
41228, 2000-055EH
Orbit
SSO
Country
Flag of USUS
Related business
Manufacturer
Unknown
Mission
Spacecraft
Bus & Motor
Unknown
Mass
Unknown
Launch date (UTC)
Icon of a cake. It is the launch day of the satellite!2000-09-21 (26 years ago)
Launch vehicle
Unknown
Launch site
Air Force Western Test Range (AFWTR)
Object type
Payload
Rocket body
Debris
Shape & HBR
Unknown shape, 0.1 m
Radar Cross Section
Medium (>0.1 m² and <1 m²)

Expand to show TLE details & history
Last TLE update: 16 hours ago

TLE from 16 hours ago
0 NOAA 16 DEB
1 41228U 00055EH  26264.04067329  .00002393  00000-0  90511-3 0  9994
2 41228  98.7198 349.6996 0019017 108.4057 251.9195 14.32073918556680
Epoch: 2026-09-21T00:58Z
TLE epoch observation values (Epoch: 2026-09-21T00:58:34.172Z)
Latitude
-0.00008°
Longitude
-24.86898°
Altitude
791.989 km
Speed
7.455 km/s
True Right ascension
23h 18m 47s
True Declination
0° 00' 00"
Sunlit
Object was in full shadow at epoch
Visualization orbit readout
Latitude
Unknown
Longitude
Unknown
Altitude
Unknown
Speed
Unknown
Apparent Right ascension
Unknown
Apparent Declination
Unknown
Sunlit
N/A
Visualization observer readout
Local Sidereal Time
09:56:45
Azimuth
Unknown
Elevation
Unknown
Doppler factor
Unknown
Orbital elements
Apogee altitude
795.566 km
Perigee altitude
768.334 km
Semi-major axis
7,160.087 km
Eccentricity
0.0019
Inclination
98.7198°
RAAN
349.6996°
Arg. of periapsis
108.4057°
True anomaly
251.71249°
Mean anomaly
251.9195°
Eccentric anomaly
251.81598°
Mean motion
3.58233 °/min
Orbital period
100.49 mins
BSTAR
0.00090511
Loading maneuver chart data...
Computing Atmospheric mass density...

Documentation

Showing up to 5 results
|